Flag for France Weather past 2 weeks in Saint-Denis, France

Now
55 °F

Overcast.


Feels Like: 51 °F
Forecast: 45 / 55 °F
Wind: 18 mph from West

Location: Paris Le Bourget Airport

Current Time: Dec 18, 2014 at 4:30:54 PM

Latest Report: Dec 18, 2014 at 3:30 PM


Visibility: N/A

Pressure: 30.09 "Hg

Humidity: 82%

Dew point: 50 °F

Location of Saint-DenisLocation

Historic Weather in Saint-Denis — Graph

°F

Saint-Denis temperature yesterday

Maximum temperature yesterday: 54 °F (at 3:00 PM)
Minimum temperature yesterday: 45 °F (at 12:00 AM)
Average temperature yesterday: 49 °F

Past Weeks' High & Low Weather Summary

 TemperatureHumidityPressure
High57 °F (Dec 18, 12:00 PM)100% (Dec 7, 2:00 AM)30.45 "Hg (Dec 7, 2:00 AM)
Low28 °F (Dec 7, 7:30 AM)62% (Dec 16, 2:30 PM)29.56 "Hg (Dec 12, 3:00 PM)
Average42 °F88%30.06 "Hg
* Reported Dec 3 3:00 PM — Dec 18 3:30 PM, Saint-Denis, Weather by CustomWeather, © 2014

Note: Actual official high and low records may vary slightly from our data, if they occured in-between our weather recording intervals... More about our weather records

Advertising

Saint-Denis weather history for previous 24 hours

 ConditionsComfort  
Time TempWeatherWind HumidityBarometerVisibility
3:30 PM
Dec 18
55 °FOvercast.18 mph82%30.09 "HgN/A
3:00 PM55 °FMostly cloudy.17 mph82%30.09 "HgN/A
2:30 PM57 °FMostly cloudy.18 mph77%30.09 "HgN/A
2:00 PM57 °FOvercast.15 mph82%30.07 "HgN/A
1:30 PM57 °FOvercast.16 mph82%30.07 "HgN/A
1:00 PM57 °FOvercast.16 mph82%30.07 "HgN/A
12:30 PM57 °FOvercast.14 mph82%30.07 "HgN/A
12:00 PM57 °FOvercast.13 mph82%30.07 "HgN/A
11:30 AM55 °FOvercast.12 mph88%30.07 "HgN/A
11:00 AM55 °FOvercast.10 mph88%30.07 "HgN/A
10:30 AM55 °FOvercast.10 mph88%30.07 "HgN/A
10:00 AM55 °FOvercast.14 mph88%30.04 "HgN/A
9:30 AM55 °FOvercast.12 mph88%30.04 "HgN/A
9:00 AM55 °FLow clouds.12 mph94%30.04 "HgN/A
8:30 AM55 °FLow clouds.12 mph94%30.01 "HgN/A
8:00 AM54 °FLow clouds.13 mph100%30.01 "HgN/A
7:30 AM54 °FLow clouds.10 mph100%30.01 "HgN/A
7:00 AM54 °FDrizzle. Low clouds.10 mph100%30.01 "Hg4 mi
6:30 AM54 °FDrizzle. Fog.9 mph100%30.01 "Hg2 mi
6:00 AM54 °FDrizzle. Fog.9 mph100%29.98 "Hg2 mi
5:30 AM54 °FLight rain. Low clouds.9 mph100%29.98 "Hg4 mi
4:30 AM54 °FLow clouds.8 mph94%29.98 "Hg6 mi
4:00 AM54 °FLow clouds.9 mph94%29.98 "Hg5 mi
3:30 AM54 °FDrizzle. Fog.10 mph94%29.98 "Hg2 mi
3:00 AM54 °FDrizzle. Low clouds.9 mph94%29.95 "HgN/A
2:30 AM54 °FLow clouds.9 mph94%29.95 "HgN/A
2:00 AM54 °FLight rain. Low clouds.8 mph94%29.95 "HgN/A
1:30 AM54 °FLow clouds.8 mph94%29.95 "HgN/A
1:00 AM54 °FLow clouds.8 mph94%29.95 "HgN/A
12:30 AM54 °FLow clouds.7 mph94%29.95 "HgN/A
12:00 AM54 °FLight rain. Fog.8 mph94%29.95 "Hg2 mi
11:30 PM
Dec 17
54 °FLight rain. Fog.8 mph94%29.95 "Hg2 mi
11:00 PM54 °FLight rain. Mostly cloudy.8 mph94%29.95 "HgN/A
10:30 PM54 °FPassing clouds.8 mph94%29.95 "HgN/A
10:00 PM54 °FLight rain. Low clouds.7 mph88%29.95 "HgN/A
9:30 PM54 °FLow clouds.9 mph94%29.95 "HgN/A
9:00 PM54 °FLow clouds.7 mph94%29.95 "HgN/A
8:30 PM54 °FMostly cloudy.7 mph88%29.92 "HgN/A
8:00 PM52 °FLow clouds.6 mph100%29.92 "Hg5 mi
7:30 PM54 °FFog.6 mph94%29.92 "Hg3 mi
7:00 PM54 °FMostly cloudy.9 mph94%29.89 "HgN/A
6:30 PM54 °FMostly cloudy.8 mph94%29.89 "HgN/A
6:00 PM54 °FMostly cloudy.8 mph94%29.89 "HgN/A
5:30 PM54 °FLow clouds.8 mph94%29.86 "HgN/A
5:00 PM54 °FLow clouds.6 mph94%29.86 "HgN/A
4:30 PM54 °FLow clouds.10 mph94%29.83 "HgN/A
4:00 PM54 °FLow clouds.10 mph94%29.80 "HgN/A
Weather by CustomWeather, © 2014

See weather overviewHow to use our weather pages